Location: Cronhütte
(48.9135°N, 9.6869°E)
Time: 18:49:09
(UTC+00:00)

Meteor 1-24 Rocket - Pass Details

Date: 23 May 2024
Orbit: 788 x 927 km, 81.3° (Epoch: 23 June)

Event Time Altitude Azimuth Distance (km) Brightness Sun altitude
Exits shadow 02:02:48 10° 188° (S) 2,664 5.8 -11.4°
Reaches altitude 10° 02:02:55 10° 188° (S) 2,623 5.7 -11.3°
Maximum altitude 02:08:57 86° 101° (E) 935 4.0 -10.7°
Drops below altitude 10° 02:14:58 10° 13° (NNE) 2,618 7.3 -10.1°
Sets 02:17:26 0° 13° (NNE) 3,551 8.1 -9.8°
